Location: *
(28.3744°N, 81.5492°W)
Time: 02:56:05
(UTC+00:00)

Fermi - Pass Details

Date: 15 June 2025
Orbit: 496 x 507 km, 25.6° (Epoch: 11 July)

Event Time Altitude Azimuth Distance (km) Brightness Sun altitude
Exits shadow 08:42:31 57° 181° (S) 592 3.7 -20.0°
Maximum altitude 08:42:33 57° 179° (S) 592 3.7 -20.0°
Drops below altitude 10° 08:46:24 10° 100° (E) 1,703 6.8 -19.4°
Sets 08:48:40 0° 96° (E) 2,589 7.9 -19.0°
